RH
69 63 66 63 69 72 72 80 81 68 57 50 47 46 46 45 43 70 86 84 76 66 59 58 56 56 56 57 59 58 59 59 61 61 61 62 62 61 60 60 60 60 60
66 70 68 65 65 66 68 71 74 66 58 54 46 42 44 44 42 62 82 88 78 72 60 57 56 54 55 55 58 56 55 56 58 60 60 60 60 59 59 59 58 58 58
65 65 70 72 71 64 61 64 64 66 59 50 47 42 43 43 41 46 75 81 83 76 68 57 54 52 54 54 56 54 50 51 51 53 54 54 55 57 57 56 56 56 56
61 67 71 72 71 70 69 70 72 73 64 56 52 47 44 45 43 43 53 73 78 69 73 66 56 51 51 53 54 51 47 46 46 46 47 47 48 50 52 55 56 55 54
60 61 70 72 67 73 75 73 75 73 68 62 52 52 46 50 45 38 50 54 72 72 71 69 66 62 56 51 49 49 47 44 42 41 43 45 45 46 48 50 52 54 55
68 66 67 69 66 73 80 81 76 76 68 66 44 46 50 49 51 49 46 47 55 59 66 66 68 64 64 50 47 47 46 45 43 42 42 42 43 44 47 49 51 53 54
72 82 72 67 68 65 70 72 79 78 77 69 63 60 56 47 44 51 51 51 53 54 58 59 60 61 61 56 48 46 44 44 45 45 44 44 44 45 47 49 51 53 54
75 79 83 77 77 77 78 74 72 78 80 72 69 66 66 61 54 45 48 47 52 56 52 52 49 52 54 59 58 49 47 45 46 42 44 46 47 48 51 54 55 54 55
87 84 77 77 92 89 87 79 83 80 80 84 58 67 84 80 64 56 44 51 49 56 55 50 46 45 48 54 58 57 51 46 42 44 46 49 50 51 53 55 56 56 56
87 84 87 85 74 76 82 84 87 91 92 79 86 51 75 69 68 61 55 50 48 47 48 54 43 41 38 57 59 60 51 47 48 48 49 50 50 51 52 55 57 58 58
86 88 85 84 87 83 88 83 89 88 84 84 72 88 68 69 56 69 67 64 49 52 50 43 44 40 38 49 63 60 54 54 48 48 50 49 49 51 54 56 59 61 61
82 88 90 83 79 90 90 92 88 93 90 84 78 82 78 71 69 69 82 74 66 57 50 47 45 43 45 46 51 60 58 52 48 49 48 48 49 52 55 59 60 62 61
83 85 90 93 89 87 90 92 95 93 96 94 86 78 77 79 90 71 81 79 70 59 58 63 67 60 48 53 62 63 57 51 48 46 47 50 51 54 57 60 61 62 62
67 68 77 93 93 91 94 93 94 95 94 96 93 88 81 86 92 90 90 86 89 81 78 74 78 80 80 70 67 60 55 53 47 48 51 54 58 60 60 60 61 62 62
65 70 73 82 93 94 94 96 97 96 96 97 96 97 97 91 82 88 91 90 82 97 94 95 88 77 79 81 81 79 74 67 56 62 66 67 70 69 65 60 61 62 62
80 82 84 85 88 93 95 97 98 98 99 98 98 98 97 90 90 91 91 92 94 97 99 95 97 95 92 88 87 90 83 82 76 75 74 77 73 62 59 60 61 62 63
85 78 81 91 92 94 94 97 98 98 98 98 98 97 94 91 92 92 94 94 95 95 97 98 96 97 98 96 95 94 92 91 89 83 77 67 58 56 58 59 62 63 62
72 68 70 74 77 82 81 87 92 91 94 92 91 91 92 88 96 96 97 98 98 99 98 99 100 99 100 99 97 98 91 78 75 62 56 54 54 58 61 59 56 58 61
67 65 63 65 67 71 74 77 80 82 86 88 90 90 90 89 94 96 97 98 99 97 98 97 99 99 99 99 99 96 86 76 57 54 52 49 48 50 52 55 58 61 62
74 72 70 70 70 71 73 75 80 84 86 87 88 88 90 92 97 100 100 100 98 98 98 98 99 99 99 96 93 88 82 71 70 47 49 50 52 53 52 54 55 56 58
84 82 83 83 81 81 78 86 88 91 95 97 97 97 100 94 90 92 96 98 98 98 98 99 100 98 94 85 85 80 81 72 76 72 72 74 70 73 70 62 58 54 55
90 90 91 91 91 86 87 89 92 94 96 98 99 99 99 96 88 87 91 90 93 98 97 96 97 90 80 71 70 82 96 91 90 76 80 74 75 73 75 72 59 56 56
96 97 96 96 97 95 94 93 94 98 100 100 100 99 97 87 83 82 76 71 67 64 66 82 86 79 73 74 89 92 85 94 95 84 81 84 78 75 76 55 58 58 58
98 98 97 96 97 95 92 93 94 98 99 100 96 81 76 69 68 67 68 77 76 73 70 62 77 76 74 74 76 89 91 91 88 83 82 95 82 78 70 78 65 62 63
97 97 94 96 96 86 61 64 77 84 82 78 71 64 60 59 54 57 73 85 78 76 58 57 55 54 54 59 63 84 96 96 95 91 82 92 91 94 83 73 74 67 59
96 94 97 95 71 84 62 57 58 63 69 64 62 64 57 66 62 65 82 84 83 76 72 69 68 67 60 64 50 72 93 96 98 95 91 95 98 97 97 97 92 83 80
Wind_Speed
5 6 5 6 6 5 6 7 5 6 6 4 4 3 5 5 4 4 3 10 10 10 9 9 9 8 8 8 8 8 8 8 9 9 9 9 10 9 9 9 9 10 10
5 5 5 6 6 5 6 7 6 5 5 5 5 5 5 4 4 7 5 5 11 10 10 10 10 9 9 9 9 8 8 8 8 8 7 7 8 8 8 8 8 8 8
6 5 4 4 5 5 6 4 4 5 5 4 6 5 4 4 4 5 6 5 7 10 11 12 11 10 10 9 9 8 7 7 7 6 6 5 6 5 5 6 6 6 7
7 6 4 4 4 5 5 4 4 3 4 5 4 5 4 3 5 5 5 6 5 5 7 11 12 12 11 11 10 9 8 7 6 5 4 3 3 3 4 4 5 5 5
9 8 5 5 6 4 5 5 4 4 3 3 5 4 4 4 4 3 6 7 7 6 5 9 10 10 11 11 11 11 9 8 5 4 4 3 1 1 2 3 4 5 6
8 8 6 6 6 5 5 4 5 4 4 4 4 4 4 4 4 5 5 4 6 7 6 7 6 5 11 13 13 12 11 9 7 5 4 3 3 2 2 3 4 5 6
7 7 7 8 7 8 8 8 5 7 5 5 4 0 1 5 5 5 5 5 6 6 7 7 5 4 5 14 14 14 12 10 8 6 5 5 4 4 4 4 5 6 7
7 7 7 8 8 6 7 10 10 6 5 7 5 4 3 3 4 6 5 5 7 6 6 8 8 7 6 4 6 14 13 12 9 7 6 5 5 5 5 6 7 8 10
10 6 7 7 7 5 6 7 10 10 9 4 9 6 4 6 3 3 8 5 6 5 6 6 8 8 9 7 10 11 13 11 10 8 7 5 3 4 5 8 9 10 11
10 11 11 8 9 8 8 9 5 7 4 8 2 10 3 4 4 2 2 4 5 7 8 5 7 7 8 7 12 12 14 13 12 10 8 6 5 5 6 9 11 12 13
10 9 10 10 6 7 7 7 6 8 9 7 9 2 9 3 2 3 4 4 3 4 5 8 7 6 7 7 5 9 15 13 12 10 8 6 6 6 8 9 11 13 14
4 7 8 8 10 6 7 6 8 7 9 10 8 7 6 9 7 4 2 2 4 4 3 2 3 3 3 5 9 13 13 11 9 8 7 6 6 8 9 10 11 14 15
3 5 5 7 7 8 8 7 7 9 7 9 12 8 8 8 3 5 4 2 3 1 1 4 4 4 4 2 5 10 11 9 7 6 6 7 7 8 10 11 14 15 16
4 5 4 6 6 6 5 7 7 7 7 7 11 12 6 5 4 4 5 6 2 2 2 2 4 3 4 4 7 12 5 10 6 7 7 8 10 12 13 13 14 16 17
8 9 9 6 6 7 7 6 7 8 7 7 8 7 5 2 3 3 2 3 5 5 6 2 1 2 2 3 8 5 3 4 5 6 9 12 13 15 15 14 15 17 18
9 10 10 10 7 1 3 3 4 3 4 3 3 5 3 3 3 3 3 3 2 3 4 2 3 5 4 3 6 6 4 2 6 12 14 16 18 16 15 16 17 18 19
6 7 8 8 8 8 6 5 3 2 3 3 4 4 6 5 4 4 3 4 4 3 3 2 1 1 2 9 5 1 3 4 4 14 14 16 17 14 16 17 18 19 20
7 9 8 8 9 8 8 7 5 5 5 6 6 7 7 5 5 4 3 1 3 3 4 4 3 4 2 3 2 4 5 7 7 12 13 16 14 15 16 18 17 18 19
9 9 9 9 8 9 8 8 7 6 7 7 7 5 6 6 5 4 4 4 3 2 2 2 3 2 2 2 3 5 5 6 5 11 13 12 13 14 16 17 17 17 17
8 7 9 9 9 9 8 7 6 7 7 7 8 6 7 5 5 5 4 4 4 4 4 4 3 2 2 3 3 3 4 3 3 2 6 11 15 14 15 15 16 17 18
8 8 9 10 9 8 6 8 8 7 10 8 8 7 8 9 10 7 4 4 4 3 3 2 2 2 3 3 3 3 3 1 2 2 3 3 3 3 5 12 13 17 17
10 11 11 11 11 8 18 17 13 9 10 8 8 7 11 10 9 9 9 7 4 2 2 1 1 2 1 1 0 2 1 2 3 2 3 5 3 5 5 4 14 17 17
9 10 11 10 10 9 18 19 17 8 7 6 6 5 6 5 5 3 4 3 2 1 1 1 1 1 2 1 3 1 0 2 3 4 3 7 3 6 5 6 15 18 19
8 7 8 9 9 9 17 17 16 7 6 5 4 3 5 4 3 3 2 1 1 2 2 0 1 2 1 2 1 3 3 3 3 3 3 5 1 5 6 4 15 19 17
7 6 6 6 5 5 13 12 7 4 4 4 5 7 5 3 3 3 3 1 1 3 3 2 3 6 8 9 7 1 2 2 3 2 2 2 3 4 5 8 6 12 11
5 5 2 2 10 6 12 12 7 3 4 2 2 3 5 4 5 6 5 5 3 1 3 4 4 4 6 5 9 4 4 3 2 4 3 2 3 2 5 3 2 4 6
Wind_Direction
166 173 176 180 188 180 200 182 190 201 181 200 241 204 168 192 205 135 133 152 146 155 160 159 156 150 142 130 121 107 97 93 90 81 81 77 70 68 65 60 57 55 50
184 186 193 181 182 189 198 179 196 177 173 180 209 208 202 203 191 133 145 151 151 160 171 173 170 165 159 149 138 126 116 107 99 92 84 79 72 65 61 59 52 46 43
192 195 214 207 190 184 207 211 198 171 166 179 187 206 209 207 187 178 160 156 155 168 180 184 181 182 175 166 157 150 138 125 113 105 91 77 69 63 49 46 41 36 27
200 208 195 222 213 186 187 191 192 184 174 171 177 203 201 202 197 194 162 163 160 162 185 190 187 190 190 181 172 163 156 150 139 131 117 93 64 52 41 19 7 5 3
199 205 207 205 210 205 189 185 198 160 174 174 184 208 196 192 210 210 192 164 176 165 169 182 185 191 197 193 189 178 171 158 149 148 160 170 181 359 340 352 349 343 331
197 191 200 202 202 206 199 185 176 181 165 180 187 198 195 197 201 214 200 186 180 163 172 168 168 184 185 196 198 186 184 176 173 176 184 210 228 238 280 310 313 316 313
214 205 202 207 202 208 207 195 180 178 201 165 126 261 246 213 216 218 208 198 191 186 158 170 171 169 184 195 201 194 192 193 195 202 218 224 236 246 259 276 289 294 300
234 218 202 214 218 217 213 196 198 196 176 177 155 120 225 304 247 217 211 206 199 178 184 172 181 172 177 189 195 199 198 200 203 217 221 225 237 257 282 296 300 300 301
261 279 249 211 220 217 223 218 208 202 201 208 183 151 182 217 155 214 213 202 196 187 185 182 183 182 171 180 187 194 199 205 206 207 202 203 230 266 286 295 296 296 298
220 233 242 257 233 225 211 223 206 217 191 200 229 222 220 146 179 192 266 214 201 197 191 193 192 188 175 159 171 175 191 195 195 197 200 197 223 263 280 293 297 297 299
204 207 216 231 247 242 245 225 227 203 204 210 210 187 233 231 206 137 193 233 234 214 193 192 189 191 178 145 144 171 183 193 196 198 197 216 241 260 282 289 298 304 305
227 211 199 216 223 236 247 243 242 226 217 215 204 221 208 210 214 185 184 174 221 250 196 172 173 143 143 137 154 165 180 199 202 199 216 231 262 283 290 294 295 295 294
278 253 194 203 221 218 229 237 236 240 226 216 214 214 222 222 221 214 190 156 156 307 114 57 46 66 55 21 117 137 173 178 202 214 243 264 279 289 289 289 293 294 294
315 314 299 203 207 221 222 235 241 238 234 225 221 224 224 221 208 207 212 169 179 217 322 80 20 76 109 149 162 143 168 191 213 241 260 284 295 295 286 287 293 294 294
353 355 344 317 212 217 212 210 238 242 226 222 225 221 224 182 139 142 159 163 188 184 195 144 55 69 94 84 93 86 149 178 206 251 271 279 280 282 279 284 287 287 291
358 356 354 353 346 257 255 238 259 266 227 217 206 185 146 123 113 119 138 132 121 122 157 164 174 160 158 144 185 156 206 268 272 280 278 280 272 273 280 282 283 288 291
4 354 355 351 7 14 6 338 306 274 252 84 43 88 83 78 83 80 81 101 109 120 125 155 161 215 175 153 170 108 266 261 255 265 268 269 274 282 289 287 290 290 290
14 22 17 30 33 34 36 29 23 33 75 69 63 75 86 92 83 95 107 123 126 133 127 158 121 197 169 169 162 211 232 241 233 249 261 267 280 283 281 282 288 288 286
20 30 34 36 35 34 33 41 52 53 58 85 90 95 103 107 112 102 89 88 78 66 59 128 136 109 82 149 192 231 227 235 247 257 270 283 293 297 294 289 287 285 284
37 39 47 43 41 46 52 50 61 78 77 76 85 93 87 89 96 98 93 95 98 93 80 85 71 116 143 187 182 218 253 239 244 263 307 297 292 290 292 296 293 295 292
48 50 60 55 50 49 51 56 62 35 74 60 60 66 90 96 105 108 110 116 115 110 111 136 111 167 174 179 190 214 213 283 326 253 286 293 283 292 292 291 289 290 287
51 49 48 54 53 57 71 74 66 69 63 63 64 55 59 53 76 96 116 117 121 133 112 124 191 178 230 219 53 81 117 49 326 350 359 296 273 277 266 259 275 288 292
55 59 58 54 57 67 78 79 79 68 63 57 65 61 75 70 65 41 58 75 30 10 82 106 243 276 7 66 132 79 98 196 227 273 294 281 219 266 257 277 292 293 294
58 58 62 69 65 65 72 75 76 68 66 61 62 67 79 79 40 17 67 85 273 272 243 243 89 349 348 352 72 174 204 246 275 266 246 273 191 285 292 274 285 294 295
66 65 71 70 64 50 68 76 91 80 73 64 54 36 39 71 22 11 8 273 336 328 181 201 277 286 289 289 275 87 318 34 305 270 254 244 307 311 291 287 269 274 294
96 96 90 75 84 50 53 45 62 65 66 59 63 91 48 32 9 11 36 15 16 341 11 340 326 325 318 278 272 202 168 180 238 327 317 51 346 7 317 280 311 315 285